Regional Weather Roundup
Issued by NWS

Home | Current Version | Previous Version | Text Only | Print | Product List | Glossary Off
Versions: 1 2 3 4 5 6 7 8 9 10 11 12 13 14 15 16 17 18 19 20 21 22 23 24 25 26 27 28 29 30 31 32 33 34 35 36 37 38 39 40 41 42 43 44 45 46 47 48 49 50

134
ASUS43 KIND 221059
RWRIN

WEATHER ROUNDUP FOR INDIANA
NATIONAL WEATHER SERVICE INDIANAPOLIS IN
600 AM EST WED FEB 22 2017

NOTE: "FAIR" INDICATES FEW OR NO CLOUDS BELOW 12,000 FEET WITH NO
SIGNIFICANT WEATHER AND/OR OBSTRUCTIONS TO VISIBILITY.

* - STATION DOES NOT REPORT WEATHER SUCH AS PRECIPITATION OR FOG.

+ - STATION NOT QUALITY CONTROLLED BY THE NATIONAL WEATHER SERVICE.
    USE DATA WITH CAUTION...ESPECIALLY DEWPOINT AND RELATIVE
    HUMIDITY OBSERVATIONS.

INZ001>003-010>013-019-020-221200-
NORTHWEST INDIANA

CITY           SKY/WX    TMP DP  RH WIND       PRES   REMARKS
GARY /AIRPORT/ CLOUDY    55  52  88 S7        29.85S FOG
KNOX *+        CLOUDY    50  37  62 S5        29.86F
MICHIGAN CITY+ CLOUDY    54  54 100 S8        29.85S
RENSSELAER +   FOG       46  46 100 SW3       29.88R VSB 3/4
VALPARAISO     PTCLDY    50  48  93 S3        29.86S FOG

$$

LMZ046-743>745-221200-
SOUTHERN LAKE MICHIGAN

STATION/POSITION TIME  TEMP    WIND        PRES    WAVE
                       AIR SEA DIR/SP/G            HT
                 (UTC) (F)     (DEG/KT/KT) (MB)    (FT)
BURNS HARBOR     1040   54     190/ 11/ 14 1011.2S
MICHIGAN CITY    1030   52     180/  6/  8   N/A

$$

INZ004-005-014>016-021>024-221200-
NORTH CENTRAL INDIANA

CITY           SKY/WX    TMP DP  RH WIND       PRES   REMARKS
GOSHEN         PTCLDY    52  48  86 S9        29.86F
PERU/GRISSOM   FOG       46  46 100 CALM      29.88S VSB 1/2
SOUTH BEND     MOCLDY    50  48  93 SW8       29.86F FOG
WARSAW +       CLOUDY    52  50  93 CALM      29.88S

$$

INZ006>009-017-018-025>027-221200-
NORTHEAST INDIANA

CITY           SKY/WX    TMP DP  RH WIND       PRES   REMARKS
ANGOLA *+      MOCLDY    52  52 100 S6        29.87S
AUBURN +       CLOUDY    54  50  87 SW3       29.90S FOG
FORT WAYNE     CLOUDY    51  49  92 S3        29.91R FOG
KENDALLVILLE + CLOUDY    53  51  95 SW8       29.88S FOG

$$

INZ028-029-035-036-043>045-051>053-221200-
WEST CENTRAL INDIANA

CITY           SKY/WX    TMP DP  RH WIND       PRES   REMARKS
GREENCASTLE +  FOG       50  50 100 CALM      29.90R VSB 1
LAFAYETTE      CLOUDY    49  49 100 CALM      29.88S FOG
TERRE HAUTE    FOG       46  44  93 NE3       29.89R VSB 1/4

$$

INZ030>032-037>040-046>048-054>057-064-065-221200-
CENTRAL INDIANA

CITY           SKY/WX    TMP DP  RH WIND       PRES   REMARKS
CP ATTERBURY + CLOUDY    54  52  94 CALM      29.91S
FRANKFORT +    FOG       47  47  97 CALM      29.91S VSB<1/4
GREENWOOD *+   CLOUDY    54  54 100 CALM      29.90S
INDIANAPOLIS   PTCLDY    54  52  93 S5        29.90R FOG
-EAGLE CREEK   FOG       50  48  93 CALM      29.89R VSB 1/4
KOKOMO +       FOG       49  49 100 S6        29.90S VSB 1/4
MT COMFORT *+  CLOUDY    54  54 100 S5        29.90S
SHELBYVILLE    CLOUDY    56  53  90 S7        29.89S FOG

$$

INZ033-034-041-042-049-050-058-059-221200-
EAST CENTRAL INDIANA

CITY           SKY/WX    TMP DP  RH WIND       PRES   REMARKS
MUNCIE         CLOUDY    57  53  86 SW7       29.90R

$$

INZ060-061-067>069-081>083-085>088-221200-
SOUTHWEST INDIANA

CITY           SKY/WX    TMP DP  RH WIND       PRES   REMARKS
EVANSVILLE     CLOUDY    55  53  93 CALM      29.90S FOG
HUNTINGBURG *+ CLOUDY    56  55  97 S3        29.91S

$$

INZ062-063-066-070>080-084-089>092-221200-
SOUTH CENTRAL AND SOUTHEAST INDIANA

CITY           SKY/WX    TMP DP  RH WIND       PRES   REMARKS
BLOOMINGTON    CLOUDY    53  51  93 CALM      29.90R FOG
MADISON *+     CLOUDY    55  54  94 SE3       29.93S

$$





USA.gov is the U.S. government's official web portal to all federal, state and local government web resources and services.